Flag for U.S.A. Weather past 2 weeks in Provo, Utah, U.S.A.

Now
79 °F

Clear.


Feels Like: 79 °F
Forecast: 70 / 98 °F
Wind: 3 mph from South

Location: Provo Municipal

Current Time: Jun 29, 2015 at 11:38:02 PM

Latest Report: Jun 29, 2015 at 11:15 PM


Visibility: 10 mi

Pressure: 30.06 "Hg

Humidity: 42%

Dew point: 54 °F

Location of ProvoLocation

Historic Weather in Provo — Graph

°F

Provo temperature yesterday

Maximum temperature yesterday: 99 °F (at 4:49 PM)
Minimum temperature yesterday: 61 °F (at 5:35 AM)
Average temperature yesterday: 76 °F

Past Weeks' High & Low Weather Summary

 TemperatureHumidityPressure
High99 °F (Jun 27, 3:57 PM)63% (Jun 18, 6:15 AM)30.23 "Hg (Jun 18, 6:15 AM)
Low54 °F (Jun 18, 6:15 AM)9% (Jun 18, 4:54 PM)29.83 "Hg (Jun 21, 6:56 PM)
Average74 °F38%30.03 "Hg
* Reported Jun 14 10:35 PM — Jun 29 10:55 PM, Provo, Weather by CustomWeather, © 2015

Note: Actual official high and low records may vary slightly from our data, if they occured in-between our weather recording intervals... More about our weather records

Advertising

Provo weather history for previous 24 hours

 ConditionsComfort  
Time TempWeatherWind HumidityBarometerVisibility
10:55 PM
Mon, Jun 29
81 °FClear.No wind34%30.06 "Hg10 mi
10:15 PM81 °FClear.No wind32%30.06 "Hg10 mi
9:55 PM84 °FSunny.7 mph27%30.05 "Hg10 mi
9:35 PM86 °FSunny.3 mph25%30.05 "Hg10 mi
8:47 PM88 °FScattered clouds.12 mph25%30.03 "Hg15 mi
7:48 PM93 °FScattered clouds.9 mph26%30.02 "Hg15 mi
6:58 PM99 °FScattered clouds.9 mph19%30.00 "Hg15 mi
4:55 PM97 °FScattered clouds.5 mph23%30.02 "Hg15 mi
3:53 PM99 °FPassing clouds.5 mph16%30.04 "Hg15 mi
2:50 PM97 °FPassing clouds.6 mph18%30.07 "Hg15 mi
2:00 PM97 °FPassing clouds.6 mph22%30.08 "Hg15 mi
12:47 PM93 °FPassing clouds.6 mph21%30.11 "Hg15 mi
11:47 AM90 °FPassing clouds.5 mph29%30.12 "Hg15 mi
10:55 AM86 °FPassing clouds.No wind33%30.13 "Hg15 mi
9:50 AM84 °FPassing clouds.No wind37%30.13 "Hg15 mi
8:50 AM79 °FPassing clouds.No wind34%30.13 "Hg15 mi
7:50 AM75 °FPassing clouds.No wind36%30.12 "Hg15 mi
6:52 AM72 °FPassing clouds.No wind41%30.11 "Hg15 mi
6:35 AM72 °FClear.6 mph41%30.10 "Hg10 mi
6:15 AM72 °FClear.6 mph47%30.09 "Hg10 mi
5:55 AM70 °FClear.5 mph46%30.09 "Hg10 mi
5:35 AM72 °FClear.No wind44%30.08 "Hg10 mi
5:15 AM70 °FClear.No wind43%30.08 "Hg10 mi
4:55 AM70 °FClear.3 mph46%30.07 "Hg10 mi
4:35 AM70 °FClear.8 mph43%30.06 "Hg10 mi
4:15 AM72 °FClear.6 mph38%30.06 "Hg10 mi
3:55 AM72 °FClear.3 mph44%30.06 "Hg10 mi
3:35 AM70 °FClear.5 mph43%30.06 "Hg10 mi
3:15 AM70 °FClear.No wind46%30.06 "Hg10 mi
2:55 AM70 °FClear.No wind46%30.05 "Hg10 mi
2:35 AM72 °FClear.5 mph41%30.05 "Hg10 mi
2:15 AM70 °FClear.No wind46%30.05 "Hg10 mi
1:55 AM72 °FClear.No wind50%30.05 "Hg10 mi
1:35 AM73 °FClear.No wind47%30.05 "Hg10 mi
1:15 AM70 °FClear.3 mph53%30.04 "Hg10 mi
12:55 AM72 °FClear.3 mph50%30.04 "Hg10 mi
12:35 AM73 °FClear.No wind47%30.04 "Hg10 mi
12:15 AM75 °FClear.No wind44%30.04 "Hg10 mi
11:55 PM
Sun, Jun 28
75 °FClear.5 mph44%30.05 "Hg10 mi
11:35 PM77 °FClear.3 mph44%30.05 "Hg10 mi
11:15 PM75 °FClear.No wind47%30.04 "Hg10 mi
Weather by CustomWeather, © 2015

See weather overviewHow to use our weather pages